This demonstration page uses our WeatherBlox Daily Observations layout. Learn more.

Left ArrowRight Arrow

Hourly Observations for May 10, 2018

Temp ( °F °C ) Dew Point ( °F °C ) Humidity (%) Winds ( mph kmh ) Pressure ( in mb ) Visibility ( mi km ) Precip ( " mm )
1:56 am 01:56 Clear 58 14.4 46 7.8 65 65 NE 7 11 29.90 1013 10 16 0.00 0.00
2:56 am 02:56 Clear 55 12.8 46 7.8 72 72 NE 9 15 29.89 1012 10 16 0.00 0.00
3:56 am 03:56 Clear 53 11.7 46 7.8 77 77 NE 7 11 29.90 1013 10 16 0.00 0.00
4:56 am 04:56 Clear 55 12.8 46 7.8 72 72 NE 5 7 29.91 1013 10 16 0.00 0.00
5:56 am 05:56 Clear 55 12.8 46 7.8 72 72 Calm 29.91 1013 10 16 0.00 0.00
6:29 am 06:29 Mostly Sunny 54 12 46 8 77 77 N 5 7 29.94 1014 10 16 0.00 0.00
6:56 am 06:56 Sunny 54 12.2 46 7.8 75 75 N 6 9 29.92 1013 10 16 0.00 0.00
7:56 am 07:56 Mostly Sunny 58 14.4 49 9.4 72 72 E 7 11 29.93 1014 10 16 0.00 0.00
8:02 am 08:02 Hazy 57 14 48 9 72 72 E 7 11 29.94 1014 2 3 0.00 0.00
8:09 am 08:09 Hazy 57 14 48 9 72 72 E 7 11 29.94 1014 4 6 0.00 0.00
8:56 am 08:56 Sunny 62 16.7 50 10 65 65 E 12 19 29.94 1014 10 16 0.00 0.00
9:56 am 09:56 Sunny 69 20.6 51 10.6 53 53 E 17 28 29.92 1013 10 16 0.00 0.00
10:56 am 10:56 Sunny 73 22.8 51 10.6 46 46 ESE 17 28 29.91 1013 10 16 0.00 0.00
11:56 am 11:56 Sunny 75 23.9 51 10.6 43 43 ESE 20 31 29.90 1012 10 16 0.00 0.00
12:56 pm 12:56 Sunny 77 25 52 11.1 42 42 SE 14 22 29.87 1012 10 16 0.00 0.00
1:56 pm 13:56 Sunny 80 26.7 52 11.1 38 38 VRB 6 9 29.85 1011 10 16 0.00 0.00
2:56 pm 14:56 Sunny 82 27.8 53 11.7 37 37 E 10 17 29.81 1010 10 16 0.00 0.00
3:56 pm 15:56 Sunny 84 28.9 54 12.2 36 36 SE 18 30 29.77 1008 10 16 0.00 0.00
4:56 pm 16:56 Sunny 85 29.4 55 12.8 36 36 SE 14 22 29.74 1007 10 16 0.00 0.00
5:56 pm 17:56 Sunny 84 28.9 55 12.8 37 37 SSE 20 31 29.72 1006 10 16 0.00 0.00
6:56 pm 18:56 Sunny 83 28.3 56 13.3 40 40 SE 21 33 29.69 1005 10 16 0.00 0.00
7:56 pm 19:56 Sunny 80 26.7 57 13.9 45 45 SE 15 24 29.67 1005 10 16 0.00 0.00
8:56 pm 20:56 Mostly Clear 78 25.6 57 13.9 48 48 SE 16 26 29.67 1005 10 16 0.00 0.00
9:56 pm 21:56 Clear 76 24.4 58 14.4 54 54 SE 16 26 29.67 1005 10 16 0.00 0.00
10:56 pm 22:56 Mostly Cloudy 70 21.1 54 12.2 57 57 ENE 15 24 29.71 1006 10 16 0.00 0.00
11:56 pm 23:56 Cloudy 68 20 53 11.7 59 59 ENE 21 33 29.72 1006 10 16 0.00 0.00

Powered by AerisWeather